Wind_Speed
38 38 38 38 38 38 38 37 38 38 37 37 37 37 37 37 37 37 38 38 38 38 38 38 39 39 38 38 38 38 38 38 38 37 37 37 37 37 37 37 37 37 37
39 40 40 40 40 40 40 40 40 40 40 40 39 39 40 40 40 40 40 40 40 40 41 41 40 40 40 40 40 40 40 39 40 40 39 39 39 39 39 39 40 40 40
39 40 40 40 41 42 42 42 42 42 42 41 42 42 42 42 42 42 42 42 42 43 42 42 41 41 41 41 41 41 41 41 41 42 42 42 41 41 42 42 42 42 42
41 41 41 42 42 43 43 44 44 44 44 43 43 43 43 43 44 44 44 44 44 44 44 43 43 43 43 43 43 43 43 43 43 43 43 43 43 44 43 43 43 43 43
43 42 42 43 44 44 44 44 43 44 45 45 45 45 45 44 45 45 46 46 46 45 45 45 45 45 45 45 45 45 45 45 45 45 45 45 45 45 45 45 45 44 44
44 44 44 45 45 45 45 45 45 45 45 46 46 46 46 46 46 46 46 47 48 47 47 48 47 47 47 47 47 47 47 47 47 47 46 46 46 46 46 46 46 45 44
46 46 46 46 46 46 46 46 46 46 47 47 47 48 48 48 47 47 47 48 48 48 49 49 49 49 48 48 49 49 49 49 49 48 47 47 47 48 48 47 47 46 46
47 48 48 47 47 47 48 48 48 47 48 48 48 48 48 48 49 49 49 50 50 50 50 51 51 51 50 50 50 50 50 50 50 49 48 48 48 48 48 48 48 47 47
47 48 48 48 48 49 49 49 49 49 49 49 49 49 49 49 48 49 50 50 51 51 51 51 51 51 51 51 50 50 51 51 50 49 49 49 48 49 50 50 49 49 49
48 48 49 49 49 49 49 49 50 50 50 50 50 50 51 51 50 49 50 51 52 52 51 51 51 50 50 50 50 50 50 51 50 50 49 50 49 49 50 50 50 50 50
48 49 49 49 49 49 49 50 50 50 50 50 50 50 50 50 50 50 49 50 50 52 52 51 51 50 50 50 50 50 49 50 50 50 49 49 49 49 50 51 51 51 51
49 49 49 49 50 49 49 49 49 50 50 50 50 50 50 50 50 50 50 49 49 50 50 50 50 50 49 49 49 49 49 49 50 49 49 49 50 50 50 51 52 52 52
48 48 49 49 49 49 49 49 49 49 49 50 50 50 50 50 50 50 49 48 48 47 47 48 49 49 49 49 49 49 50 50 49 49 49 49 50 50 50 51 52 51 51
47 48 48 48 48 48 48 49 49 49 49 50 50 50 49 49 50 49 48 47 46 45 46 46 48 49 49 49 49 49 49 49 50 50 49 49 49 50 50 50 50 49 49
46 47 48 48 48 48 48 48 48 49 49 49 49 49 49 48 48 48 47 47 46 45 44 45 45 47 48 48 48 48 48 48 49 49 49 49 50 50 50 50 49 49 48
46 47 47 47 47 47 47 47 47 47 47 47 48 49 48 47 47 47 46 46 46 45 44 44 44 45 45 45 46 47 46 47 47 48 49 48 49 50 49 49 49 48 48
43 44 44 45 45 45 45 46 46 46 46 46 47 47 47 47 46 47 46 46 46 45 44 43 44 43 43 43 43 45 45 44 45 46 46 47 48 47 47 47 48 47 47
42 42 42 43 43 43 44 44 45 45 45 45 44 44 45 45 44 44 44 44 44 44 43 42 41 42 42 42 41 42 42 42 43 43 44 45 45 45 45 46 46 45 46
40 41 41 41 41 42 42 43 44 44 44 43 42 42 43 43 42 43 43 43 43 43 42 41 40 40 40 41 41 41 41 41 41 42 42 42 43 44 44 44 44 44 44
38 39 39 39 40 40 40 41 41 41 41 40 39 40 40 40 40 40 40 40 41 41 41 40 39 39 39 40 40 40 41 41 40 41 41 41 41 42 42 43 43 43 42
37 37 38 38 38 39 39 39 39 38 38 37 37 37 38 38 38 38 38 38 38 39 39 39 38 38 39 39 39 39 39 39 39 39 39 39 40 41 41 41 41 41 40
36 36 37 38 38 38 38 37 37 36 36 35 36 36 36 36 36 36 36 36 37 37 37 37 38 38 39 40 39 39 38 37 37 38 38 38 39 40 40 40 39 39 38
35 35 35 36 36 36 36 35 36 35 35 35 35 34 34 34 33 33 34 35 35 35 36 36 36 37 38 38 38 38 38 37 36 36 37 37 38 38 38 37 37 36 35
34 34 34 34 34 34 34 34 34 34 34 33 33 33 33 32 31 32 32 33 33 34 34 34 35 36 36 36 36 37 37 36 36 36 36 36 36 36 36 35 34 33 33
32 32 32 32 31 31 32 32 33 33 32 32 32 32 32 32 31 31 31 31 32 33 33 34 34 34 34 34 34 35 35 35 35 35 35 34 33 32 32 32 31 31 30
31 31 31 30 30 31 31 31 32 32 31 31 31 32 32 32 32 31 31 31 31 32 32 33 33 33 33 33 33 34 34 33 33 33 32 31 30 29 29 28 28 28 28
Wind_Direction
259 259 258 258 258 258 258 259 260 261 261 262 263 264 265 266 266 267 267 267 267 267 266 266 266 267 267 267 267 268 269 269 270 270 271 272 273 274 276 277 278 279 280
260 260 261 260 259 259 260 260 261 262 262 262 263 264 265 266 266 267 267 268 268 268 268 268 268 267 267 267 268 268 269 270 270 271 271 272 272 274 275 276 278 279 280
261 262 262 263 262 261 261 261 262 262 263 263 263 263 265 266 266 267 267 267 268 268 269 268 268 267 267 268 268 268 269 270 271 271 271 272 273 274 275 276 277 279 279
261 263 263 263 263 263 262 263 263 263 263 264 264 264 265 265 266 266 267 267 267 267 268 268 268 267 267 268 268 268 269 270 270 271 271 272 273 274 275 275 277 278 279
262 263 264 264 264 264 264 264 264 264 264 264 264 264 265 266 266 266 266 266 267 267 268 269 268 268 267 267 268 269 269 269 270 271 271 272 273 274 275 276 277 278 279
263 264 265 265 264 264 264 264 264 265 265 265 265 265 265 266 266 267 267 267 268 267 267 268 268 268 268 267 268 269 269 270 270 271 271 272 273 274 275 275 276 277 278
263 264 265 266 265 266 266 266 266 266 266 266 266 266 266 267 267 267 267 267 268 268 268 268 268 268 269 268 268 269 270 270 270 270 270 271 273 274 274 275 275 276 277
265 265 266 266 266 266 267 267 267 266 266 267 267 268 268 267 267 268 267 268 268 268 268 269 269 269 269 269 269 269 270 270 270 270 270 270 272 274 275 275 275 275 276
265 266 266 266 266 267 267 267 267 267 267 267 267 269 269 268 268 268 268 269 269 269 268 269 269 269 269 269 269 270 270 271 270 270 270 271 272 273 274 274 274 275 275
265 266 267 266 267 268 268 267 267 267 267 267 268 268 269 269 269 268 269 269 269 268 269 269 269 269 269 269 269 270 270 270 270 271 271 271 272 273 274 274 274 275 275
266 267 267 267 267 268 268 268 268 268 269 268 268 269 270 270 270 270 270 270 269 269 269 269 269 269 269 269 269 269 270 271 270 271 272 273 273 274 274 273 273 274 275
268 267 267 267 267 268 268 268 268 268 268 268 269 269 270 271 271 271 271 270 270 269 269 269 269 269 269 270 270 269 269 271 271 272 272 272 273 274 275 274 273 274 276
269 268 267 267 267 267 267 268 268 268 268 268 268 269 270 271 271 271 271 270 270 270 270 270 271 270 270 270 270 269 268 269 270 271 271 271 272 274 275 274 274 275 275
268 268 267 267 267 267 267 267 268 268 269 269 269 269 270 271 271 270 270 270 270 270 270 271 272 272 271 271 271 270 269 269 270 270 271 272 273 274 274 274 274 274 274
268 267 267 266 267 267 267 268 268 268 269 269 269 269 270 270 270 269 270 271 271 271 271 272 273 273 273 272 272 271 270 269 270 270 271 272 273 274 274 273 274 274 274
269 267 266 266 266 266 267 268 268 268 269 270 271 270 269 269 269 269 270 271 272 272 271 272 273 273 273 273 272 271 271 271 270 271 272 273 273 274 273 273 273 274 274
271 269 268 267 266 267 268 268 268 268 269 270 271 270 269 269 269 269 270 271 272 272 272 272 273 273 273 274 274 273 273 273 272 272 272 273 274 273 274 274 274 274 273
270 270 268 267 267 268 269 269 269 268 269 270 270 271 271 270 269 269 269 269 271 271 272 273 273 273 274 275 275 274 273 273 273 273 273 273 273 274 275 275 274 274 273
270 269 268 267 268 268 269 269 269 269 269 270 271 271 270 270 269 269 268 269 270 271 272 272 272 273 275 275 275 274 275 274 274 273 274 274 274 275 275 275 274 274 274
270 269 266 266 267 268 268 268 268 269 270 270 271 271 271 270 269 268 268 268 269 269 270 270 271 273 274 275 275 275 274 275 274 274 274 274 274 275 275 274 275 274 274
270 270 268 266 267 267 268 268 267 267 268 269 269 270 270 270 269 269 268 268 268 269 270 271 272 273 274 275 276 276 275 275 275 275 275 275 275 275 276 276 276 275 273
270 271 269 268 267 267 268 267 266 266 267 268 269 270 270 270 270 269 268 268 269 270 271 273 274 275 275 275 275 276 275 275 275 275 275 275 276 277 278 277 276 275 273
271 271 270 269 268 269 269 268 267 266 268 269 269 270 270 270 270 269 268 268 270 271 273 274 275 275 275 276 276 276 276 276 277 276 276 276 277 278 277 278 277 275 274
271 272 271 270 269 268 268 268 268 267 268 269 270 270 269 268 269 269 270 270 270 272 273 275 276 276 276 276 277 277 277 277 277 277 277 278 278 279 278 278 278 276 275
272 271 271 268 268 267 267 267 267 267 268 269 270 270 269 268 268 269 270 271 272 273 274 275 277 278 279 279 279 279 279 276 276 276 277 278 279 278 277 277 276 276 276
272 271 270 267 267 268 268 268 267 267 268 268 269 269 269 268 268 269 271 272 274 274 274 274 275 278 280 280 280 280 280 277 275 276 276 277 279 279 278 276 276 276 275
Height
5778 5779 5780 5781 5783 5784 5785 5787 5788 5789 5790 5791 5792 5793 5793 5794 5795 5795 5795 5796 5796 5796 5796 5796 5797 5797 5798 5798 5798 5799 5799 5799 5799 5800 5800 5799 5799 5799 5799 5798 5797 5796 5795
5769 5771 5772 5773 5774 5775 5777 5778 5779 5780 5781 5782 5783 5784 5785 5785 5786 5786 5787 5787 5787 5787 5787 5787 5788 5788 5788 5789 5789 5789 5790 5790 5790 5790 5790 5790 5790 5790 5789 5789 5788 5787 5786
5760 5762 5763 5764 5765 5766 5767 5768 5769 5771 5772 5773 5774 5774 5775 5776 5776 5777 5777 5777 5778 5777 5777 5778 5778 5778 5779 5779 5779 5779 5780 5780 5780 5780 5780 5780 5780 5780 5779 5779 5778 5777 5776
5751 5752 5754 5755 5756 5756 5757 5758 5760 5761 5761 5762 5763 5764 5765 5765 5766 5766 5767 5767 5767 5767 5767 5767 5768 5768 5769 5769 5769 5769 5769 5770 5770 5770 5770 5770 5769 5769 5769 5768 5768 5767 5766
5741 5742 5743 5745 5746 5746 5747 5748 5749 5750 5751 5752 5753 5754 5754 5755 5755 5755 5755 5755 5756 5756 5756 5757 5757 5757 5758 5758 5758 5758 5758 5758 5759 5759 5759 5759 5758 5758 5758 5757 5757 5756 5755
5731 5732 5733 5734 5735 5736 5736 5737 5738 5739 5740 5741 5742 5742 5743 5743 5743 5744 5744 5744 5744 5744 5745 5745 5745 5746 5746 5746 5746 5747 5747 5747 5747 5747 5747 5747 5747 5746 5746 5746 5745 5744 5744
5720 5721 5722 5723 5724 5724 5725 5726 5726 5727 5728 5729 5730 5731 5731 5731 5732 5732 5732 5732 5732 5732 5732 5733 5733 5733 5734 5734 5734 5734 5734 5734 5735 5735 5735 5735 5735 5734 5734 5734 5733 5733 5732
5709 5710 5711 5711 5712 5712 5713 5714 5715 5715 5716 5717 5717 5718 5719 5721 5720 5720 5720 5720 5720 5720 5720 5720 5720 5720 5721 5721 5721 5721 5722 5722 5722 5722 5723 5723 5723 5722 5721 5721 5721 5720 5720
5697 5698 5699 5699 5700 5700 5701 5702 5703 5704 5704 5705 5704 5705 5706 5707 5708 5708 5707 5707 5707 5707 5706 5706 5706 5707 5707 5708 5708 5708 5708 5708 5709 5709 5709 5709 5709 5709 5708 5708 5708 5707 5707
5685 5686 5687 5687 5688 5688 5689 5690 5690 5691 5692 5692 5692 5692 5693 5693 5694 5696 5696 5694 5693 5693 5693 5693 5693 5693 5694 5694 5694 5695 5695 5695 5695 5695 5696 5696 5696 5696 5695 5695 5694 5694 5693
5673 5674 5674 5675 5675 5676 5676 5677 5677 5678 5678 5679 5679 5679 5679 5679 5679 5680 5682 5681 5680 5680 5680 5680 5679 5680 5680 5681 5681 5681 5681 5681 5682 5682 5682 5682 5682 5682 5681 5681 5680 5680 5679
5661 5661 5661 5662 5662 5663 5663 5664 5664 5665 5665 5665 5666 5666 5666 5666 5666 5666 5667 5667 5667 5667 5666 5666 5666 5666 5667 5667 5667 5667 5668 5668 5668 5668 5668 5668 5668 5668 5667 5667 5666 5666 5665
5648 5648 5649 5649 5649 5650 5650 5651 5651 5652 5652 5653 5653 5653 5653 5653 5653 5653 5653 5653 5654 5654 5654 5654 5653 5653 5652 5652 5653 5653 5654 5654 5654 5654 5654 5654 5654 5654 5653 5652 5652 5651 5651
5636 5636 5636 5636 5636 5637 5637 5638 5639 5639 5639 5640 5640 5640 5640 5640 5640 5639 5639 5640 5641 5642 5642 5641 5640 5639 5639 5639 5639 5639 5639 5640 5640 5640 5640 5640 5640 5640 5639 5638 5638 5637 5637
5623 5623 5623 5624 5624 5624 5625 5625 5626 5626 5627 5627 5627 5626 5626 5627 5627 5626 5626 5627 5627 5628 5629 5629 5628 5626 5625 5625 5625 5625 5625 5625 5626 5626 5626 5626 5626 5625 5625 5624 5624 5624 5623
5611 5611 5611 5611 5611 5612 5612 5612 5613 5613 5614 5614 5614 5613 5614 5614 5614 5614 5614 5614 5614 5615 5616 5617 5615 5614 5613 5612 5612 5612 5612 5612 5612 5612 5612 5612 5612 5611 5611 5610 5610 5610 5610
5598 5598 5598 5598 5599 5599 5600 5600 5601 5601 5601 5601 5601 5601 5601 5601 5601 5601 5601 5602 5602 5602 5603 5604 5603 5602 5601 5601 5600 5600 5600 5600 5600 5600 5599 5599 5598 5598 5597 5596 5596 5596 5596
5587 5586 5586 5587 5587 5588 5588 5588 5589 5589 5589 5589 5589 5589 5589 5589 5589 5589 5589 5590 5590 5590 5591 5592 5592 5591 5590 5590 5589 5589 5589 5588 5588 5588 5587 5587 5586 5585 5584 5583 5583 5582 5582
5575 5575 5575 5575 5576 5576 5577 5577 5577 5577 5577 5577 5577 5577 5577 5577 5577 5577 5577 5578 5579 5579 5580 5581 5581 5580 5580 5579 5578 5578 5578 5577 5577 5576 5576 5575 5574 5573 5572 5571 5570 5570 5570
5564 5564 5563 5564 5564 5565 5565 5565 5565 5566 5566 5566 5566 5566 5566 5566 5566 5566 5566 5567 5568 5569 5569 5570 5570 5570 5569 5568 5568 5567 5567 5566 5566 5565 5564 5563 5562 5561 5560 5559 5559 5558 5557
5553 5553 5553 5553 5553 5554 5554 5554 5554 5555 5555 5555 5555 5555 5555 5555 5555 5555 5556 5557 5558 5558 5559 5559 5560 5560 5559 5558 5558 5557 5557 5556 5555 5554 5554 5552 5551 5550 5548 5547 5546 5546 5546
5543 5543 5543 5543 5543 5543 5543 5543 5544 5544 5544 5545 5545 5545 5545 5545 5545 5546 5546 5547 5548 5548 5549 5549 5550 5549 5548 5548 5547 5546 5546 5546 5546 5545 5543 5541 5540 5539 5537 5536 5535 5535 5535
5532 5533 5533 5533 5533 5533 5533 5533 5533 5534 5535 5535 5535 5535 5535 5536 5536 5536 5537 5537 5538 5538 5539 5539 5539 5539 5538 5537 5537 5536 5535 5535 5534 5533 5532 5532 5530 5528 5526 5525 5525 5524 5524
5523 5523 5523 5523 5523 5523 5523 5524 5524 5524 5525 5526 5526 5526 5527 5527 5527 5527 5528 5528 5529 5529 5529 5530 5529 5529 5528 5527 5526 5525 5524 5524 5524 5522 5521 5521 5520 5518 5516 5515 5514 5514 5514
5513 5513 5513 5513 5513 5514 5514 5514 5515 5516 5516 5517 5517 5517 5518 5518 5518 5519 5519 5520 5520 5520 5520 5520 5520 5519 5518 5517 5516 5515 5515 5514 5514 5513 5511 5511 5510 5509 5508 5507 5506 5505 5506
5504 5504 5504 5504 5505 5505 5505 5506 5506 5507 5508 5508 5508 5509 5509 5510 5510 5510 5511 5512 5512 5512 5511 5511 5511 5510 5509 5508 5507 5506 5505 5505 5504 5504 5502 5502 5501 5500 5500 5499 5498 5497 5498